GW5236 Weather Reports


Display with metric or nautical units.
time (UTC)temp
F
wind
direction
speed
MPH
gust
MPH
rain 1hr
in
rain 24hr
in
rain mn
in
humidity
%
barometer
mb
20260902185018 92 187 2.0 7.0 0.00 0.00 0.00 58 1017.3
20260902184543 92 309 3.0 10.0 0.00 0.00 0.00 58 1017.4
20260902184012 92 220 2.0 10.0 0.00 0.00 0.00 57 1017.5
20260902183514 92 309 4.0 9.0 0.00 0.00 0.00 57 1017.6
20260902183049 92 260 1.0 7.0 0.00 0.00 0.00 61 1017.5
20260902182517 92 190 2.0 7.0 0.00 0.00 0.00 58 1017.6
20260902182015 92 305 3.0 7.0 0.00 0.00 0.00 57 1017.8
20260902181533 92 288 3.0 11.0 0.00 0.00 0.00 59 1017.9
20260902181017 92 169 2.0 11.0 0.00 0.00 0.00 59 1017.8
20260902180518 92 224 2.0 7.0 0.00 0.00 0.00 58 1017.9
20260902180038 92 209 1.0 7.0 0.00 0.00 0.00 61 1017.9
20260902175516 92 314 3.0 7.0 0.00 0.00 0.00 60 1017.9
20260902175018 91 207 2.0 6.0 0.00 0.00 0.00 61 1018.0
20260902174533 91 107 1.0 7.0 0.00 0.00 0.00 62 1018.0
20260902174019 91 183 2.0 8.0 0.00 0.00 0.00 59 1018.2
20260902173522 91 302 3.0 8.0 0.00 0.00 0.00 59 1018.3
20260902173043 91 268 2.0 8.0 0.00 0.00 0.00 61 1018.3
20260902172514 91 175 2.0 7.0 0.00 0.00 0.00 62 1018.4
20260902172014 91 297 3.0 7.0 0.00 0.00 0.00 61 1018.4
20260902171533 91 189 3.0 7.0 0.00 0.00 0.00 61 1018.5
20260902171015 91 169 3.0 6.0 0.00 0.00 0.00 62 1018.5
20260902170517 90 254 2.0 7.0 0.00 0.00 0.00 63 1018.6
20260902170034 90 294 4.0 7.0 0.00 0.00 0.00 62 1018.6
20260902165515 90 283 2.0 9.0 0.00 0.00 0.00 64 1018.6
20260902165015 90 180 1.0 9.0 0.00 0.00 0.00 64 1018.6
20260902164521 90 292 4.0 6.0 0.00 0.00 0.00 61 1018.6
20260902164010 90 267 1.0 6.0 0.00 0.00 0.00 65 1018.6
20260902163511 89 317 3.0 6.0 0.00 0.00 0.00 65 1018.6
20260902163004 89 290 3.0 6.0 0.00 0.00 0.00 63 1018.6
20260902162501 89 195 3.0 6.0 0.00 0.00 0.00 64 1018.6
20260902162004 89 213 2.0 6.0 0.00 0.00 0.00 67 1018.5
20260902161504 89 209 2.0 6.0 0.00 0.00 0.00 66 1018.5
20260902161004 89 252 2.0 7.0 0.00 0.00 0.00 66 1018.6
20260902160504 89 249 2.0 7.0 0.00 0.00 0.00 63 1018.6
20260902160014 89 299 3.0 6.0 0.00 0.00 0.00 65 1018.6
20260902155506 89 288 2.0 6.0 0.00 0.00 0.00 68 1018.6
20260902155004 89 197 2.0 6.0 0.00 0.00 0.00 69 1018.7
20260902154516 88 116 1.0 6.0 0.00 0.00 0.00 69 1018.7
20260902154008 88 267 2.0 7.0 0.00 0.00 0.00 67 1018.8
20260902153510 88 152 2.0 7.0 0.00 0.00 0.00 67 1018.9
20260902153020 87 243 2.0 7.0 0.00 0.00 0.00 70 1018.8
20260902152512 87 253 3.0 7.0 0.00 0.00 0.00 69 1018.7
20260902152013 87 297 2.0 7.0 0.00 0.00 0.00 71 1018.8
20260902151506 86 172 2.0 7.0 0.00 0.00 0.00 71 1018.8
20260902151004 86 244 3.0 7.0 0.00 0.00 0.00 69 1018.7
20260902150504 86 170 2.0 6.0 0.00 0.00 0.00 71 1018.6
20260902150010 86 309 2.0 7.0 0.00 0.00 0.00 71 1018.7
20260902145506 85 279 2.0 7.0 0.00 0.00 0.00 72 1018.7
20260902145007 85 232 1.0 7.0 0.00 0.00 0.00 75 1018.7
20260902144510 85 188 3.0 7.0 0.00 0.00 0.00 72 1018.7
20260902144008 85 316 2.0 7.0 0.00 0.00 0.00 71 1018.6
20260902143508 85 329 4.0 7.0 0.00 0.00 0.00 72 1018.6
20260902143020 84 180 1.0 7.0 0.00 0.00 0.00 74 1018.5
20260902142512 84 292 3.0 7.0 0.00 0.00 0.00 75 1018.6
20260902142010 84 271 1.0 6.0 0.00 0.00 0.00 76 1018.5
20260902141523 83 307 1.0 6.0 0.00 0.00 0.00 76 1018.6
20260902141013 82 203 2.0 6.0 0.00 0.00 0.00 79 1018.5
20260902140501 82 237 1.0 4.0 0.00 0.00 0.00 79 1018.4
20260902140004 81 291 1.0 4.0 0.00 0.00 0.00 80 1018.4
20260902135504 81 273 1.0 4.0 0.00 0.00 0.00 79 1018.4
20260902135007 81 302 1.0 5.0 0.00 0.00 0.00 80 1018.4
20260902134510 81 181 2.0 5.0 0.00 0.00 0.00 80 1018.4
20260902134008 80 281 0.0 9.0 0.00 0.00 0.00 83 1018.4
20260902133509 80 201 2.0 7.0 0.00 0.00 0.00 84 1018.4
20260902133016 79 188 2.0 4.0 0.00 0.00 0.00 84 1018.4
20260902132512 79 175 1.0 2.0 0.00 0.00 0.00 85 1018.4
20260902132010 78 205 0.0 4.0 0.00 0.00 0.00 86 1018.4
20260902131523 77 190 0.0 4.0 0.00 0.00 0.00 86 1018.4
20260902131012 77 180 1.0 3.0 0.00 0.00 0.00 87 1018.3
20260902130512 76 173 1.0 3.0 0.00 0.00 0.00 88 1018.2
20260902130027 76 184 0.0 5.0 0.00 0.00 0.00 88 1018.3
20260902125504 76 235 1.0 5.0 0.00 0.00 0.00 88 1018.2
20260902125005 75 195 0.0 2.0 0.00 0.00 0.00 90 1018.3
20260902124511 75 200 0.0 3.0 0.00 0.00 0.00 90 1018.2
20260902124009 74 189 0.0 3.0 0.00 0.00 0.00 90 1018.2
20260902123506 74 194 2.0 3.0 0.00 0.00 0.00 91 1018.1
20260902123014 73 215 1.0 3.0 0.00 0.00 0.00 92 1018.2
20260902122508 72 194 1.0 3.0 0.00 0.00 0.00 93 1018.1
20260902122009 72 175 1.0 2.0 0.00 0.00 0.00 94 1018.1
20260902121523 71 175 0.0 2.0 0.00 0.00 0.00 95 1018.2
20260902121011 71 175 0.0 0.0 0.00 0.00 0.00 95 1018.2
20260902120512 71 175 0.0 0.0 0.00 0.00 0.00 95 1018.1
20260902120026 71 175 0.0 0.0 0.00 0.00 0.00 94 1018.0
20260902115514 71 175 0.0 0.0 0.00 0.00 0.00 94 1018.0
20260902115015 71 175 0.0 2.0 0.00 0.00 0.00 94 1018.2
20260902114530 71 175 0.0 2.0 0.00 0.00 0.00 94 1018.0
20260902114005 70 175 0.0 2.0 0.00 0.00 0.00 94 1017.9
20260902113505 70 175 0.0 2.0 0.00 0.00 0.00 95 1018.0
20260902113011 70 175 0.0 2.0 0.00 0.00 0.00 95 1018.0
20260902112507 70 175 0.0 2.0 0.00 0.00 0.00 95 1017.9
20260902112008 70 175 0.0 2.0 0.00 0.00 0.00 95 1017.9
20260902111521 70 175 0.0 2.0 0.00 0.00 0.00 94 1017.9
20260902111009 70 175 0.0 2.0 0.00 0.00 0.00 94 1017.8
20260902110511 70 175 0.0 1.0 0.00 0.00 0.00 94 1017.8
20260902110037 70 175 0.0 2.0 0.00 0.00 0.00 94 1017.9
20260902105515 71 175 0.0 2.0 0.00 0.00 0.00 94 1017.8
20260902105014 71 175 0.0 2.0 0.00 0.00 0.00 94 1017.8
20260902104550 71 175 0.0 2.0 0.00 0.00 0.00 94 1017.7
20260902104017 71 175 0.0 2.0 0.00 0.00 0.00 94 1017.7
20260902103516 71 175 0.0 2.0 0.00 0.00 0.00 94 1017.7
20260902103026 71 175 0.0 2.0 0.00 0.00 0.00 94 1017.7
20260902102505 71 175 0.0 2.0 0.00 0.00 0.00 94 1017.7
20260902102007 71 175 0.0 2.0 0.00 0.00 0.00 94 1017.7
20260902101519 71 175 0.0 2.0 0.00 0.00 0.00 93 1017.7
20260902101008 71 175 0.0 2.0 0.00 0.00 0.00 93 1017.6
20260902100512 71 175 0.0 2.0 0.00 0.00 0.00 94 1017.7
20260902100024 71 175 0.0 1.0 0.00 0.00 0.00 93 1017.7
20260902095511 71 175 0.0 2.0 0.00 0.00 0.00 93 1017.7
20260902095012 71 175 0.0 2.0 0.00 0.00 0.00 93 1017.7
20260902094528 71 175 0.0 2.0 0.00 0.00 0.00 93 1017.7
20260902094014 71 175 0.0 2.0 0.00 0.00 0.00 93 1017.6
20260902093515 71 175 0.0 2.0 0.00 0.00 0.00 94 1017.5
20260902093029 71 175 0.0 2.0 0.00 0.00 0.00 94 1017.5
20260902092520 71 175 0.0 2.0 0.00 0.00 0.00 94 1017.5
20260902092009 71 175 0.0 2.0 0.00 0.00 0.00 94 1017.6
20260902091515 71 175 0.0 2.0 0.00 0.00 0.00 94 1017.6
20260902091006 71 175 0.0 2.0 0.00 0.00 0.00 94 1017.7
20260902090514 71 175 0.0 0.0 0.00 0.00 0.00 94 1017.7
20260902090027 71 175 0.0 2.0 0.00 0.00 0.00 94 1017.7
20260902085510 71 175 0.0 2.0 0.00 0.00 0.00 95 1017.7
20260902085014 71 175 0.0 2.0 0.00 0.00 0.00 95 1017.7
20260902084536 71 175 0.0 2.0 0.00 0.00 0.00 95 1017.6
20260902084014 71 175 0.0 1.0 0.00 0.00 0.00 95 1017.4
20260902083520 71 175 0.0 0.0 0.00 0.00 0.00 94 1017.4
20260902083032 71 175 0.0 0.0 0.00 0.00 0.00 94 1017.4
20260902082516 71 175 0.0 0.0 0.00 0.00 0.00 93 1017.4
20260902082017 71 175 0.0 2.0 0.00 0.00 0.00 93 1017.5
20260902081533 71 175 0.0 2.0 0.00 0.00 0.00 93 1017.4
20260902081018 71 175 0.0 2.0 0.00 0.00 0.00 94 1017.2
20260902080507 71 175 0.0 2.0 0.00 0.00 0.00 94 1017.1
20260902080022 71 175 0.0 2.0 0.00 0.00 0.00 94 1017.2
20260902075508 71 175 0.0 1.0 0.00 0.00 0.00 95 1017.3
20260902075015 71 175 0.0 0.0 0.00 0.00 0.00 94 1017.3
20260902074523 71 175 0.0 0.0 0.00 0.00 0.00 94 1017.3
20260902074012 71 175 0.0 0.0 0.00 0.00 0.00 94 1017.3
20260902073516 71 175 0.0 0.0 0.00 0.00 0.00 93 1017.1
20260902073030 72 175 0.0 0.0 0.00 0.00 0.00 94 1017.2
20260902072514 72 175 0.0 0.0 0.00 0.00 0.00 93 1017.2
20260902072016 72 175 0.0 2.0 0.00 0.00 0.00 94 1017.2
20260902071531 72 175 0.0 2.0 0.00 0.00 0.00 94 1017.3
20260902071020 72 175 0.0 2.0 0.00 0.00 0.00 94 1017.3
20260902070518 72 175 0.0 2.0 0.00 0.00 0.00 94 1017.3
20260902070033 72 175 0.0 0.0 0.00 0.00 0.00 94 1017.2
20260902065507 72 175 0.0 0.0 0.00 0.00 0.00 94 1017.2
20260902065012 72 175 0.0 0.0 0.00 0.00 0.00 94 1017.2
20260902064527 72 175 0.0 0.0 0.00 0.00 0.00 93 1017.3
20260902064013 72 175 0.0 0.0 0.00 0.00 0.00 93 1017.3
20260902063510 72 175 0.0 0.0 0.00 0.00 0.00 93 1017.3
20260902063044 73 175 0.0 0.0 0.00 0.00 0.00 92 1017.3
20260902062516 73 175 0.0 1.0 0.00 0.00 0.00 92 1017.4
20260902062013 73 175 0.0 1.0 0.00 0.00 0.00 92 1017.4
20260902061550 73 175 0.0 0.0 0.00 0.00 0.00 92 1017.4
20260902061018 74 175 0.0 0.0 0.00 0.00 0.00 92 1017.3
20260902060503 74 175 0.0 2.0 0.00 0.00 0.00 92 1017.3
20260902060016 74 175 0.0 2.0 0.00 0.00 0.00 92 1017.3
20260902055506 73 175 0.0 2.0 0.00 0.00 0.00 93 1017.3
20260902055010 73 175 0.0 2.0 0.00 0.00 0.00 93 1017.4
20260902054516 73 175 0.0 0.0 0.00 0.00 0.00 93 1017.2
20260902054008 73 175 0.0 0.0 0.00 0.00 0.00 93 1017.3
20260902053508 73 175 0.0 0.0 0.00 0.00 0.00 93 1017.2
20260902053002 73 175 0.0 2.0 0.00 0.00 0.00 93 1017.2
20260902052504 73 175 0.0 2.0 0.00 0.00 0.00 93 1017.2
20260902052004 73 175 0.0 1.0 0.00 0.00 0.00 94 1017.2
20260902051506 73 175 0.0 0.0 0.00 0.00 0.00 93 1017.2
20260902051003 73 175 0.0 0.0 0.00 0.00 0.00 93 1017.2
20260902050508 73 175 0.0 0.0 0.00 0.00 0.00 93 1017.2
20260902050013 73 175 0.0 0.0 0.00 0.00 0.00 92 1017.1
20260902045505 74 175 0.0 0.0 0.00 0.00 0.00 92 1017.1
20260902045008 74 175 0.0 0.0 0.00 0.00 0.00 92 1017.2
20260902044536 74 175 0.0 0.0 0.00 0.00 0.00 92 1017.2
20260902044008 74 175 0.0 0.0 0.00 0.00 0.00 92 1017.1
20260902043508 74 175 0.0 0.0 0.00 0.00 0.00 92 1017.2
20260902043023 74 175 0.0 0.0 0.00 0.00 0.00 91 1017.2
20260902042508 74 175 0.0 0.0 0.00 0.00 0.00 91 1017.2
20260902042011 75 175 0.0 0.0 0.00 0.00 0.00 91 1017.1
20260902041504 75 175 0.0 0.0 0.00 0.00 0.00 91 1017.1
20260902041003 75 175 0.0 0.0 0.00 0.00 0.00 90 1017.1
20260902040503 75 175 0.0 2.0 0.00 0.00 0.00 91 1017.1
20260902040013 75 175 0.0 2.0 0.00 0.00 0.00 91 1017.1
20260902035504 75 175 0.0 2.0 0.00 0.00 0.00 91 1017.1
20260902035005 75 175 0.0 2.0 0.00 0.00 0.00 92 1017.1
20260902034514 75 175 0.0 2.0 0.00 0.00 0.00 92 1017.2
20260902034008 75 175 0.0 2.0 0.00 0.00 0.00 92 1017.1
20260902033512 75 175 0.0 0.0 0.00 0.00 0.00 92 1017.2
20260902033024 75 175 0.0 0.0 0.00 0.00 0.00 91 1017.2
20260902032514 75 175 0.0 0.0 0.00 0.00 0.00 91 1017.2
20260902032016 76 175 0.0 2.0 0.00 0.00 0.00 91 1017.3
20260902031542 76 175 0.0 2.0 0.00 0.00 0.00 91 1017.3
20260902031012 76 175 0.0 2.0 0.00 0.00 0.00 91 1017.3
20260902030503 76 175 0.0 2.0 0.00 0.00 0.00 92 1017.3
20260902030010 76 175 0.0 2.0 0.00 0.00 0.00 92 1017.3
20260902025505 76 175 0.0 2.0 0.00 0.00 0.00 92 1017.4
20260902025004 76 175 0.0 2.0 0.00 0.00 0.00 92 1017.3
20260902024511 76 175 0.0 2.0 0.00 0.00 0.00 93 1017.4
20260902024011 75 175 0.0 2.0 0.00 0.00 0.00 93 1017.4
20260902023508 75 175 0.0 2.0 0.00 0.00 0.00 93 1017.4
20260902023028 75 175 0.0 2.0 0.00 0.00 0.00 93 1017.4
20260902022511 75 175 0.0 1.0 0.00 0.00 0.00 93 1017.4
20260902022011 75 175 0.0 0.0 0.00 0.00 0.00 93 1017.3
20260902021524 76 175 0.0 2.0 0.00 0.00 0.00 93 1017.3
20260902021014 76 175 0.0 2.0 0.00 0.00 0.00 93 1017.2
20260902020510 76 175 0.0 0.0 0.00 0.00 0.00 92 1017.2
20260902020024 76 175 0.0 0.0 0.00 0.00 0.00 92 1017.2
20260902015501 76 175 0.0 0.0 0.00 0.00 0.00 92 1017.2
20260902015004 76 175 0.0 0.0 0.00 0.00 0.00 92 1017.2
20260902014514 77 175 0.0 0.0 0.00 0.00 0.00 91 1017.2
20260902014005 77 175 0.0 0.0 0.00 0.00 0.00 91 1017.2
20260902013508 77 175 0.0 0.0 0.00 0.00 0.00 91 1017.1
20260902013019 77 175 0.0 0.0 0.00 0.00 0.00 91 1017.0
20260902012511 77 175 0.0 0.0 0.00 0.00 0.00 90 1017.0
20260902012010 78 175 0.0 0.0 0.00 0.00 0.00 89 1017.0
20260902011530 78 175 0.0 0.0 0.00 0.00 0.00 89 1016.9
20260902011012 78 175 0.0 0.0 0.00 0.00 0.00 87 1016.8
20260902010513 78 175 0.0 0.0 0.00 0.00 0.00 87 1016.7
20260902010034 79 175 0.0 0.0 0.00 0.00 0.00 87 1016.6
20260902005511 79 175 0.0 0.0 0.00 0.00 0.00 86 1016.6
20260902005015 80 175 0.0 0.0 0.00 0.00 0.00 85 1016.6
20260902004527 80 175 0.0 0.0 0.00 0.00 0.00 84 1016.6
20260902004005 81 175 0.0 0.0 0.00 0.00 0.00 83 1016.5
20260902003510 81 175 0.0 2.0 0.00 0.00 0.00 83 1016.6
20260902003016 82 175 0.0 2.0 0.00 0.00 0.00 81 1016.6
20260902002511 82 175 0.0 0.0 0.00 0.00 0.00 80 1016.6
20260902002010 83 175 0.0 1.0 0.00 0.00 0.00 81 1016.6
20260902001526 83 175 0.0 2.0 0.00 0.00 0.00 80 1016.8
20260902001027 83 175 0.0 2.0 0.00 0.00 0.00 79 1016.7
20260902000512 84 175 0.0 2.0 0.00 0.00 0.00 78 1016.8
20260902000028 84 175 0.0 2.0 0.00 0.00 0.00 77 1016.7
20260901235512 84 141 1.0 2.0 0.00 0.00 0.00 76 1016.8
20260901235017 84 153 1.0 2.0 0.00 0.00 0.00 76 1016.8
20260901234530 85 153 0.0 2.0 0.00 0.00 0.00 77 1017.0
20260901234013 85 188 0.0 2.0 0.00 0.00 0.00 77 1017.1
20260901233515 85 188 0.0 1.0 0.00 0.00 0.00 77 1017.1
20260901233014 86 188 0.0 2.0 0.00 0.00 0.00 76 1017.2
20260901232509 87 188 0.0 2.0 0.00 0.00 0.00 75 1017.3
20260901232009 87 188 1.0 2.0 0.00 0.00 0.00 69 1017.3
20260901231525 87 176 0.0 2.0 0.00 0.00 0.00 70 1017.3
20260901231008 87 201 0.0 3.0 0.00 0.00 0.00 70 1017.4
20260901230512 88 146 1.0 3.0 0.00 0.00 0.00 69 1017.3
20260901230025 88 189 1.0 2.0 0.00 0.00 0.00 69 1017.3
20260901225514 88 195 1.0 3.0 0.00 0.00 0.00 69 1017.3
20260901225014 88 189 1.0 3.0 0.00 0.00 0.00 69 1017.2
20260901224512 89 149 1.0 4.0 0.00 0.00 0.00 69 1017.2
20260901224005 89 159 1.0 4.0 0.00 0.00 0.00 67 1017.2
20260901223506 90 156 2.0 4.0 0.00 0.00 0.00 66 1017.2
20260901223013 90 142 2.0 4.0 0.00 0.00 0.00 65 1017.2
20260901222504 90 153 1.0 4.0 0.00 0.00 0.00 65 1017.2
20260901222008 90 195 1.0 4.0 0.00 0.00 0.00 64 1017.3
20260901221515 90 211 1.0 4.0 0.00 0.00 0.00 64 1017.3
20260901221008 90 220 1.0 4.0 0.00 0.00 0.00 62 1017.3
20260901220511 91 198 1.0 5.0 0.00 0.00 0.00 61 1017.4
20260901220025 91 298 1.0 5.0 0.00 0.00 0.00 62 1017.2
20260901215515 91 283 1.0 5.0 0.00 0.00 0.00 61 1017.2
20260901215013 91 165 2.0 5.0 0.00 0.00 0.00 62 1017.2
20260901214533 91 223 1.0 4.0 0.00 0.00 0.00 63 1017.2
20260901214014 91 177 1.0 5.0 0.00 0.00 0.00 63 1017.2
20260901213504 90 250 2.0 6.0 0.00 0.00 0.00 63 1017.2
20260901213019 90 138 3.0 6.0 0.00 0.00 0.00 63 1017.2
20260901212504 91 174 2.0 6.0 0.00 0.00 0.00 64 1017.3
20260901212006 91 131 2.0 4.0 0.00 0.00 0.00 63 1017.3
20260901211515 90 194 2.0 4.0 0.00 0.00 0.00 63 1017.4
20260901211010 90 291 2.0 4.0 0.00 0.00 0.00 62 1017.5
20260901210510 90 154 0.0 5.0 0.00 0.00 0.00 63 1017.5
20260901210038 90 192 2.0 5.0 0.00 0.00 0.00 62 1017.5
20260901205514 90 247 2.0 6.0 0.00 0.00 0.00 61 1017.6
20260901205013 91 294 1.0 6.0 0.00 0.00 0.00 61 1017.6
20260901204528 92 327 2.0 5.0 0.00 0.00 0.00 58 1017.5
20260901204012 92 304 2.0 5.0 0.00 0.00 0.00 58 1017.4
20260901203516 92 198 2.0 7.0 0.00 0.00 0.00 58 1017.5
20260901203031 92 272 2.0 13.0 0.00 0.00 0.00 58 1017.5
20260901202514 92 300 3.0 12.0 0.00 0.00 0.00 57 1017.4
20260901202004 91 236 2.0 11.0 0.00 0.00 0.00 59 1017.3
20260901201514 91 211 4.0 9.0 0.00 0.00 0.00 59 1017.4
20260901201016 91 220 2.0 9.0 0.00 0.00 0.00 59 1017.4
20260901200510 91 261 2.0 9.0 0.00 0.00 0.00 59 1017.3
20260901200042 92 169 2.0 9.0 0.00 0.00 0.00 60 1017.3
20260901195509 91 229 3.0 9.0 0.00 0.00 0.00 59 1017.4
20260901195012 91 141 3.0 9.0 0.00 0.00 0.00 60 1017.4
20260901194527 91 127 4.0 9.0 0.00 0.00 0.00 59 1017.5
20260901194018 91 215 3.0 8.0 0.00 0.00 0.00 62 1017.3
20260901193512 91 206 4.0 8.0 0.00 0.00 0.00 61 1017.3
20260901193030 90 178 1.0 10.0 0.00 0.00 0.00 63 1017.5
20260901192525 90 177 4.0 10.0 0.00 0.00 0.00 61 1017.6
20260901192015 90 163 3.0 11.0 0.00 0.00 0.00 61 1017.6
20260901191541 90 144 4.0 11.0 0.00 0.00 0.00 59 1017.4
20260901191007 91 194 3.0 10.0 0.00 0.00 0.00 60 1017.6
20260901190509 91 191 4.0 10.0 0.00 0.00 0.00 61 1017.7
20260901190023 91 206 4.0 14.0 0.00 0.00 0.00 61 1017.7
20260901185509 91 167 4.0 14.0 0.00 0.00 0.00 61 1017.6